[[{"header":{"parameterUnit":"m.s-1","parameterCategory":1,"la1":30.2991,"la2":30.254,"lo1":-89.0895,"lo2":-89.0444,"dy":0.0017,"dx":0.0017,"nx":28,"ny":28,"refTime":"2025-08-24T03:00:00:Z","depth":0,"parameterNumber":2,"parameterNumberName":"U-component_of_WINDS"},"data":[0,0,0,0,0,0,0,0,0,0,0,0,0,0,0,0,0,0,0,0,0,0,0,0,0,0,0,0,0,0,0,0,0,0,0,0,0,0,0,0,0,0,0,0,0,0,0,0,0,0,0,0,0,0,0,0,0,0,0.547,0.547,0,0.5483,0.5483,0.5483,0.5498,0.5498,0.5498,0.5499,0.5511,0.5511,0.5511,0,0,0,0,0,0,0,0,0,0,0,0,0,0.5457,0.5457,0.547,0.547,0.547,0.5483,0.5483,0.5483,0.5498,0.5498,0.5498,0.5499,0.5511,0.5511,0.5511,0,0,0,0,0,0,0,0,0,0,0,0,0,0.5465,0.5457,0.547,0.5479,0.548,0.5483,0.5483,0.5483,0.5498,0.5498,0.5498,0.5499,0.5511,0.5511,0.5511,0.5505,0,0,0.5511,0.5511,0,0,0,0,0,0,0,0,0.5465,0.5466,0.5477,0.5478,0.5479,0.5489,0.5483,0.549,0.5498,0.5491,0.5499,0.5499,0.5503,0.5504,0.5506,0.5506,0.5506,0.5511,0.5511,0.5512,0.5512,0,0,0,0,0,0,0,0.5464,0.5465,0.5475,0.5478,0.5479,0.5482,0.5484,0.5484,0.5495,0.5492,0.5493,0.5494,0.5504,0.5505,0.5506,0.5506,0.5511,0.5512,0.5512,0.5512,0.5503,0.5502,0,0,0,0,0,0,0.5462,0.5465,0.5474,0.5475,0.5473,0.5482,0.5484,0.5486,0.5495,0.5497,0.5494,0.5495,0.5505,0.5506,0.5506,0.55,0.5512,0.5512,0.5512,0.5503,0.5503,0.5502,0,0,0,0,0,0,0.5462,0.5463,0.5474,0.547,0.5472,0.5482,0.5484,0.5486,0.5487,0.5497,0.5499,0.5494,0.5505,0.5506,0.5505,0.5501,0.5512,0.5512,0.5504,0.5503,0.5503,0.5488,0,0,0,0,0,0,0.5462,0.5463,0.5461,0.547,0.5472,0.5473,0.5483,0.5486,0.5488,0.5489,0.5497,0.5499,0.5506,0.5505,0.5506,0.5501,0.5512,0.5504,0.5503,0.5503,0.5489,0.5487,0.5486,0,0,0,0,0,0.5461,0.5456,0.5461,0.5462,0.547,0.5473,0.5474,0.5482,0.5487,0.5485,0.5491,0.5498,0.5502,0.5505,0.5506,0.5501,0.5504,0.5503,0.5503,0.549,0.5488,0.5486,0,0,0,0,0,0,0.5445,0.5457,0.5463,0.546,0.5465,0.5475,0.5473,0.5479,0.5483,0.5484,0.5494,0.5495,0.5493,0.5497,0.5501,0.5497,0.5504,0.5503,0.5494,0.5492,0.549,0.5489,0.5512,0,0,0,0,0,0.5442,0.5443,0.5454,0.5451,0.5453,0.5462,0.5464,0.547,0.5475,0.5477,0.5483,0.5488,0.549,0.5491,0.5494,0.549,0.5492,0.5487,0.5486,0.5484,0.5483,0.5482,0.548,0.55,0.55,0.55,0,0,0.5434,0.5441,0.5441,0.5448,0.5452,0.5453,0.5464,0.5465,0.5465,0.5477,0.5477,0.5482,0.5488,0.5486,0.5485,0.5489,0.5478,0.5483,0.5482,0.5482,0.5481,0.5479,0.5477,0.5499,0.5499,0.55,0,0,0.542,0.5426,0.5424,0.5429,0.5436,0.5442,0.5442,0.5451,0.5454,0.5454,0.5464,0.5465,0.5468,0.5472,0.5474,0.5463,0.5469,0.5464,0.5454,0.5453,0.5451,0.545,0.5445,0.5444,0.5463,0.5463,0.5463,0,0.541,0.5412,0.5422,0.5422,0.5425,0.5437,0.5435,0.5439,0.5446,0.5447,0.5452,0.5457,0.5462,0.546,0.5458,0.5459,0.5459,0.5462,0.5451,0.5449,0.5448,0.5444,0.5443,0.5462,0.5462,0.5462,0.5462,0,0.5398,0.54,0.5398,0.5405,0.5407,0.5407,0.5416,0.5418,0.5424,0.543,0.543,0.5436,0.544,0.5441,0.5447,0.5441,0.5443,0.5449,0.5456,0.5445,0.5442,0.544,0.5461,0.5461,0.5461,0.5462,0,0,0.5374,0.5388,0.5387,0.539,0.54,0.5401,0.5401,0.5405,0.5406,0.5411,0.5411,0.5414,0.542,0.5422,0.5429,0.5427,0.5418,0.5434,0.5434,0.543,0.5412,0.5407,0.5405,0.5423,0.5423,0.5422,0.5411,0,0.5362,0.5363,0.5372,0.537,0.5371,0.5383,0.5383,0.5388,0.5394,0.5396,0.5402,0.5404,0.5412,0.5414,0.5413,0.5419,0.5414,0.542,0.5422,0.5422,0.542,0.5403,0.5397,0.5386,0.541,0.5409,0.5409,0,0.5347,0.5352,0.535,0.536,0.5361,0.536,0.5366,0.5367,0.5374,0.5378,0.5382,0.5389,0.539,0.5398,0.5398,0.5402,0.5403,0.5407,0.5406,0.5406,0.5415,0.5402,0.5383,0.5381,0.5407,0.5407,0.5408,0,0.5329,0.5335,0.5335,0.5338,0.5349,0.5349,0.5353,0.536,0.5362,0.5367,0.5368,0.5373,0.5375,0.5378,0.5386,0.5391,0.5386,0.5394,0.5389,0.5389,0.5387,0.5387,0.5367,0.5389,0.5389,0.5389,0.5389,0,0.5314,0.5313,0.5327,0.5327,0.5326,0.5337,0.5335,0.534,0.5347,0.5348,0.5358,0.5358,0.537,0.5372,0.5379,0.5378,0.5379,0.5382,0.5384,0.5381,0.538,0.5381,0.5382,0.5388,0.5388,0.5388,0.5389,0,0.5294,0.5304,0.5304,0.5315,0.5318,0.5316,0.5325,0.5326,0.5332,0.5333,0.5334,0.5345,0.5348,0.5357,0.5362,0.5366,0.5363,0.5367,0.5361,0.5362,0.5356,0.5356,0.5336,0.5334,0.5357,0.5357,0.5357,0,0.5283,0.5282,0.5293,0.5295,0.5299,0.5302,0.5304,0.5315,0.5318,0.5325,0.5324,0.5328,0.5332,0.5336,0.5343,0.5347,0.5351,0.5344,0.5351,0.5348,0.535,0.535,0.535,0.5342,0.5341,0.5341,0.5341,0,0.5263,0.5268,0.5272,0.5277,0.528,0.5285,0.529,0.5291,0.5303,0.5305,0.5308,0.5311,0.5316,0.532,0.5325,0.533,0.5337,0.5339,0.5337,0.5334,0.533,0.5332,0.5356,0.5339,0.5339,0.5339,0.5339,0.5339,0.5247,0.5247,0.5255,0.5259,0.5264,0.5269,0.5269,0.5277,0.528,0.5285,0.5292,0.5294,0.5301,0.5309,0.5313,0.5315,0.5319,0.5317,0.5317,0.5316,0.5315,0.5331,0.5316,0.5316,0.5316,0.5316,0.5316,0,0.5227,0.5233,0.5237,0.5244,0.5247,0.5255,0.5261,0.5263,0.5265,0.5271,0.5274,0.5278,0.5282,0.529,0.5295,0.5295,0.5298,0.5295,0.5295,0.5296,0.5311,0.5311,0.5292,0.5292,0.5292,0.5292,0.5292,0.5292,0.5217,0.5217,0.5224,0.5226,0.5232,0.5235,0.5238,0.5243,0.5248,0.5251,0.5255,0.5261,0.5268,0.5273,0.5276,0.5279,0.5279,0.5275,0.5279,0.5293,0.5295,0.5297,0.5297,0.5276,0.5276,0.5263,0.5263,0.5263]},{"header":{"parameterUnit":"m.s-1","parameterCategory":1,"la1":30.2991,"la2":30.254,"lo1":-89.0895,"lo2":-89.0444,"dy":0.0017,"dx":0.0017,"nx":28,"ny":28,"refTime":"2025-08-24T03:00:00:Z","depth":0,"parameterNumber":3,"parameterNumberName":"V-component_of_WINDS"},"data":[0,0,0,0,0,0,0,0,0,0,0,0,0,0,0,0,0,0,0,0,0,0,0,0,0,0,0,0,0,0,0,0,0,0,0,0,0,0,0,0,0,0,0,0,0,0,0,0,0,0,0,0,0,0,0,0,0,0,-3.2312,-3.2313,0,-3.2359,-3.2359,-3.236,-3.2348,-3.2347,-3.2346,-3.2345,-3.2389,-3.2391,-3.2393,0,0,0,0,0,0,0,0,0,0,0,0,0,-3.2212,-3.2213,-3.2312,-3.2313,-3.2313,-3.2359,-3.2359,-3.236,-3.2348,-3.2347,-3.2346,-3.2345,-3.2388,-3.2391,-3.2393,0,0,0,0,0,0,0,0,0,0,0,0,0,-3.2256,-3.2214,-3.2312,-3.2313,-3.2314,-3.2358,-3.2359,-3.236,-3.2348,-3.2347,-3.2346,-3.2345,-3.2388,-3.239,-3.2393,-3.2439,0,0,-3.2403,-3.2404,0,0,0,0,0,0,0,0,-3.2254,-3.226,-3.2313,-3.2313,-3.2314,-3.2346,-3.234,-3.2386,-3.2349,-3.2335,-3.2345,-3.2344,-3.2376,-3.2379,-3.2391,-3.2441,-3.2443,-3.2403,-3.2405,-3.2406,-3.2407,0,0,0,0,0,0,0,-3.2251,-3.2258,-3.233,-3.2313,-3.2314,-3.2311,-3.2315,-3.2348,-3.2362,-3.2336,-3.2336,-3.2341,-3.2376,-3.2388,-3.2392,-3.2443,-3.2403,-3.2405,-3.2407,-3.2408,-3.2534,-3.2536,0,0,0,0,0,0,-3.2247,-3.2255,-3.2329,-3.2332,-3.228,-3.2314,-3.2319,-3.2337,-3.2362,-3.2364,-3.2342,-3.2341,-3.2384,-3.2388,-3.2393,-3.245,-3.2406,-3.2409,-3.241,-3.2533,-3.2534,-3.2536,0,0,0,0,0,0,-3.2245,-3.2254,-3.2327,-3.2294,-3.2303,-3.2317,-3.2337,-3.2339,-3.2351,-3.2367,-3.2369,-3.2353,-3.2383,-3.2389,-3.2428,-3.2451,-3.241,-3.2413,-3.2531,-3.2533,-3.2535,-3.2561,0,0,0,0,0,0,-3.2242,-3.2253,-3.2271,-3.2294,-3.2304,-3.2362,-3.2339,-3.2341,-3.2357,-3.2355,-3.2377,-3.2379,-3.2382,-3.2424,-3.2431,-3.2454,-3.2415,-3.2529,-3.2532,-3.2535,-3.2558,-3.2564,-3.2569,0,0,0,0,0,-3.2239,-3.2275,-3.2272,-3.2281,-3.2327,-3.2363,-3.2369,-3.2373,-3.2359,-3.2377,-3.2387,-3.2378,-3.2447,-3.2428,-3.2436,-3.246,-3.2527,-3.2531,-3.2534,-3.2556,-3.2563,-3.2569,0,0,0,0,0,0,-3.2253,-3.2278,-3.2275,-3.232,-3.234,-3.2361,-3.2384,-3.238,-3.2403,-3.24,-3.2403,-3.2408,-3.2448,-3.2458,-3.2436,-3.2506,-3.2485,-3.249,-3.2499,-3.2505,-3.2511,-3.2508,-3.2418,0,0,0,0,0,-3.2261,-3.229,-3.231,-3.2348,-3.2358,-3.2369,-3.2385,-3.2387,-3.2407,-3.2415,-3.2427,-3.2446,-3.2472,-3.2489,-3.2514,-3.2559,-3.2565,-3.258,-3.2586,-3.259,-3.2595,-3.2621,-3.2629,-3.2548,-3.2548,-3.2547,0,0,-3.2279,-3.2296,-3.2314,-3.2351,-3.2367,-3.2396,-3.2376,-3.2407,-3.2428,-3.2419,-3.2457,-3.2468,-3.2489,-3.2532,-3.2551,-3.2541,-3.2618,-3.2594,-3.2598,-3.26,-3.2626,-3.2633,-3.264,-3.255,-3.2549,-3.2549,0,0,-3.2326,-3.2342,-3.2376,-3.2393,-3.2417,-3.2425,-3.2433,-3.2456,-3.2463,-3.2502,-3.2496,-3.252,-3.2564,-3.2581,-3.2594,-3.265,-3.2643,-3.2657,-3.2685,-3.2711,-3.2718,-3.2723,-3.2744,-3.2752,-3.2662,-3.2662,-3.2662,0,-3.2344,-3.2389,-3.2394,-3.2426,-3.2443,-3.2438,-3.2472,-3.2488,-3.2518,-3.253,-3.2518,-3.2575,-3.2589,-3.2636,-3.265,-3.2661,-3.2671,-3.2655,-3.2717,-3.2722,-3.2728,-3.2748,-3.2756,-3.2664,-3.2663,-3.2663,-3.2663,0,-3.2411,-3.2442,-3.2466,-3.2499,-3.2518,-3.2551,-3.2561,-3.258,-3.258,-3.2589,-3.2629,-3.2646,-3.2675,-3.2686,-3.2685,-3.2734,-3.2727,-3.2716,-3.2695,-3.2737,-3.2756,-3.2764,-3.2666,-3.2665,-3.2665,-3.2664,0,0,-3.2467,-3.2504,-3.2513,-3.2528,-3.2555,-3.2579,-3.2612,-3.2642,-3.2659,-3.268,-3.2708,-3.2747,-3.2738,-3.2753,-3.2755,-3.2777,-3.2822,-3.2764,-3.2764,-3.2775,-3.2878,-3.2887,-3.2896,-3.2818,-3.2819,-3.282,-3.2877,0,-3.2518,-3.2579,-3.2585,-3.2638,-3.2668,-3.2663,-3.2692,-3.2712,-3.2721,-3.2747,-3.2756,-3.2784,-3.2769,-3.2779,-3.2801,-3.2812,-3.2843,-3.2808,-3.2844,-3.2845,-3.284,-3.2906,-3.2915,-3.2968,-3.2884,-3.2886,-3.2886,0,-3.2585,-3.2611,-3.2669,-3.2694,-3.2706,-3.2733,-3.2761,-3.2786,-3.2808,-3.2813,-3.2832,-3.2831,-3.2865,-3.2842,-3.2889,-3.2865,-3.2881,-3.2888,-3.289,-3.2895,-3.2869,-3.2913,-3.2985,-3.2993,-3.2898,-3.2897,-3.2896,0,-3.2623,-3.2672,-3.2713,-3.2726,-3.2756,-3.2775,-3.2788,-3.2809,-3.2827,-3.2852,-3.2864,-3.2891,-3.2907,-3.2928,-3.2934,-3.2917,-3.2982,-3.2959,-3.2987,-3.2987,-3.3002,-3.3001,-3.3078,-3.3009,-3.3009,-3.3009,-3.3009,0,-3.2679,-3.2715,-3.2731,-3.2756,-3.2796,-3.2802,-3.2841,-3.2853,-3.2873,-3.29,-3.2897,-3.2922,-3.2929,-3.2955,-3.296,-3.2999,-3.3006,-3.3011,-3.3012,-3.3012,-3.3012,-3.3023,-3.302,-3.3011,-3.3011,-3.301,-3.301,0,-3.2728,-3.274,-3.2785,-3.2811,-3.2818,-3.2846,-3.2868,-3.2892,-3.2902,-3.2936,-3.2945,-3.2959,-3.2991,-3.2999,-3.3036,-3.3039,-3.3086,-3.3083,-3.3079,-3.3079,-3.3108,-3.3105,-3.3195,-3.3208,-3.313,-3.3131,-3.3131,0,-3.2764,-3.2792,-3.2821,-3.284,-3.2855,-3.2885,-3.2905,-3.2912,-3.2932,-3.2961,-3.2982,-3.3013,-3.3039,-3.3089,-3.3102,-3.3131,-3.3129,-3.3159,-3.3133,-3.3133,-3.3131,-3.313,-3.3134,-3.3164,-3.3165,-3.3165,-3.3166,0,-3.2827,-3.2832,-3.2861,-3.2892,-3.2916,-3.2941,-3.2964,-3.2979,-3.299,-3.3013,-3.3046,-3.3066,-3.3105,-3.3137,-3.3166,-3.3178,-3.3174,-3.3174,-3.3182,-3.3183,-3.318,-3.3184,-3.3094,-3.3172,-3.3171,-3.3171,-3.317,-3.317,-3.2871,-3.2897,-3.2922,-3.2955,-3.2974,-3.2996,-3.3021,-3.3035,-3.3063,-3.3097,-3.3099,-3.3135,-3.3158,-3.3197,-3.3212,-3.324,-3.3231,-3.3242,-3.3245,-3.3249,-3.3252,-3.3175,-3.3245,-3.3245,-3.3244,-3.3244,-3.3244,0,-3.2936,-3.2952,-3.2982,-3.3017,-3.3043,-3.3038,-3.3064,-3.3086,-3.3118,-3.3141,-3.3167,-3.3206,-3.3236,-3.3253,-3.3283,-3.3303,-3.3302,-3.3311,-3.331,-3.3313,-3.3257,-3.3248,-3.3311,-3.3311,-3.3311,-3.3311,-3.3311,-3.3311,-3.2972,-3.3015,-3.3024,-3.3077,-3.3093,-3.313,-3.3145,-3.3166,-3.3184,-3.3229,-3.3255,-3.3266,-3.3286,-3.3319,-3.3347,-3.3351,-3.3363,-3.3373,-3.3376,-3.3324,-3.3317,-3.331,-3.3302,-3.3375,-3.3375,-3.343,-3.343,-3.3431]}]]